Time,TemperatureF,DewpointF,PressureIn,WindDirection,WindDirectionDegrees,WindSpeedMPH,WindSpeedGustMPH,Humidity,HourlyPrecipIn,Conditions,Clouds,dailyrainin,SoftwareType,DateUTC
2013-07-05 00:03:00,69.6,49.0,29.69,SSE,167,6.0,13.0,48,0.00,,,0.00,weatherlink.com 1.10,2013-07-05 07:03:00,
2013-07-05 00:18:00,69.5,49.0,29.69,SW,214,11.0,15.0,48,0.00,,,0.00,weatherlink.com 1.10,2013-07-05 07:18:00,
2013-07-05 00:33:00,69.4,48.0,29.69,SSE,156,7.0,13.0,47,0.00,,,0.00,weatherlink.com 1.10,2013-07-05 07:33:00,
2013-07-05 00:48:00,69.1,48.0,29.69,SSE,167,7.0,16.0,48,0.00,,,0.00,weatherlink.com 1.10,2013-07-05 07:48:00,
2013-07-05 01:03:00,68.8,49.0,29.70,South,172,0.0,11.0,49,0.00,,,0.00,weatherlink.com 1.10,2013-07-05 08:03:00,
2013-07-05 01:18:00,68.8,49.0,29.69,SSW,194,9.0,13.0,49,0.00,,,0.00,weatherlink.com 1.10,2013-07-05 08:18:00,
2013-07-05 01:33:00,68.7,49.0,29.69,SW,217,7.0,13.0,49,0.00,,,0.00,weatherlink.com 1.10,2013-07-05 08:33:00,
2013-07-05 01:48:00,68.7,49.0,29.69,South,190,7.0,13.0,49,0.00,,,0.00,weatherlink.com 1.10,2013-07-05 08:48:00,
2013-07-05 02:03:00,68.3,48.0,29.68,SSW,212,9.0,12.0,49,0.00,,,0.00,weatherlink.com 1.10,2013-07-05 09:03:00,
2013-07-05 02:18:00,68.6,49.0,29.68,SSW,208,2.0,6.0,49,0.00,,,0.00,weatherlink.com 1.10,2013-07-05 09:18:00,
2013-07-05 02:33:00,67.9,48.0,29.67,South,188,4.0,7.0,50,0.00,,,0.00,weatherlink.com 1.10,2013-07-05 09:33:00,
2013-07-05 02:48:00,67.7,48.0,29.67,SSE,158,3.0,8.0,50,0.00,,,0.00,weatherlink.com 1.10,2013-07-05 09:48:00,
2013-07-05 03:19:00,68.4,48.0,29.66,South,173,4.0,8.0,48,0.00,,,0.00,weatherlink.com 1.10,2013-07-05 10:19:00,
2013-07-05 03:34:00,68.2,48.0,29.66,SSE,162,6.0,9.0,48,0.00,,,0.00,weatherlink.com 1.10,2013-07-05 10:34:00,
2013-07-05 03:49:00,68.7,48.0,29.66,SSE,156,3.0,8.0,47,0.00,,,0.00,weatherlink.com 1.10,2013-07-05 10:49:00,
2013-07-05 04:04:00,68.5,47.0,29.66,South,169,2.0,8.0,47,0.00,,,0.00,weatherlink.com 1.10,2013-07-05 11:04:00,
2013-07-05 04:19:00,68.1,48.0,29.65,SSW,205,3.0,9.0,49,0.00,,,0.00,weatherlink.com 1.10,2013-07-05 11:19:00,
2013-07-05 04:34:00,67.8,48.0,29.65,SW,216,1.0,10.0,49,0.00,,,0.00,weatherlink.com 1.10,2013-07-05 11:34:00,
2013-07-05 04:49:00,67.8,48.0,29.65,SSE,156,4.0,6.0,49,0.00,,,0.00,weatherlink.com 1.10,2013-07-05 11:49:00,
2013-07-05 05:04:00,67.1,48.0,29.66,SSE,159,5.0,8.0,50,0.00,,,0.00,weatherlink.com 1.10,2013-07-05 12:04:00,
2013-07-05 05:19:00,67.1,48.0,29.66,South,180,2.0,9.0,50,0.00,,,0.00,weatherlink.com 1.10,2013-07-05 12:19:00,
2013-07-05 05:34:00,66.9,48.0,29.66,SW,214,1.0,6.0,50,0.00,,,0.00,weatherlink.com 1.10,2013-07-05 12:34:00,
2013-07-05 06:04:00,68.8,47.0,29.66,South,170,2.0,9.0,46,0.00,,,0.00,weatherlink.com 1.10,2013-07-05 13:04:00,
2013-07-05 06:34:00,70.4,47.0,29.67,South,190,4.0,9.0,43,0.00,,,0.00,weatherlink.com 1.10,2013-07-05 13:34:00,
2013-07-05 06:49:00,70.9,47.0,29.67,ESE,115,7.0,11.0,42,0.00,,,0.00,weatherlink.com 1.10,2013-07-05 13:49:00,
2013-07-05 07:04:00,71.8,47.0,29.67,South,186,4.0,10.0,41,0.00,,,0.00,weatherlink.com 1.10,2013-07-05 14:04:00,
2013-07-05 07:19:00,72.7,47.0,29.68,ESE,117,3.0,12.0,40,0.00,,,0.00,weatherlink.com 1.10,2013-07-05 14:19:00,
2013-07-05 07:34:00,73.8,46.0,29.68,South,183,9.0,15.0,37,0.00,,,0.00,weatherlink.com 1.10,2013-07-05 14:34:00,
2013-07-05 07:49:00,74.6,46.0,29.68,SW,216,9.0,13.0,36,0.00,,,0.00,weatherlink.com 1.10,2013-07-05 14:49:00,
2013-07-05 08:19:00,76.9,46.0,29.68,SW,235,8.0,12.0,34,0.00,,,0.00,weatherlink.com 1.10,2013-07-05 15:19:00,
2013-07-05 08:34:00,76.4,46.0,29.68,SW,214,15.0,21.0,34,0.00,,,0.00,weatherlink.com 1.10,2013-07-05 15:34:00,
2013-07-05 08:49:00,76.3,46.0,29.69,South,169,7.0,22.0,34,0.00,,,0.00,weatherlink.com 1.10,2013-07-05 15:49:00,
2013-07-05 09:04:00,76.3,46.0,29.68,SSE,166,18.0,27.0,34,0.00,,,0.00,weatherlink.com 1.10,2013-07-05 16:04:00,
2013-07-05 09:19:00,75.9,46.0,29.69,SW,214,15.0,29.0,34,0.00,,,0.00,weatherlink.com 1.10,2013-07-05 16:19:00,
2013-07-05 09:34:00,76.2,46.0,29.68,South,177,16.0,27.0,34,0.00,,,0.00,weatherlink.com 1.10,2013-07-05 16:34:00,
2013-07-05 09:49:00,76.5,46.0,29.69,SSW,210,15.0,25.0,34,0.00,,,0.00,weatherlink.com 1.10,2013-07-05 16:49:00,
2013-07-05 10:04:00,77.4,46.0,29.68,SSE,165,6.0,23.0,33,0.00,,,0.00,weatherlink.com 1.10,2013-07-05 17:04:00,
2013-07-05 10:19:00,79.4,46.0,29.69,South,188,8.0,24.0,31,0.00,,,0.00,weatherlink.com 1.10,2013-07-05 17:19:00,
2013-07-05 10:34:00,80.3,47.0,29.69,SW,217,15.0,22.0,31,0.00,,,0.00,weatherlink.com 1.10,2013-07-05 17:34:00,
2013-07-05 10:50:00,82.0,48.0,29.69,South,172,9.0,21.0,30,0.00,,,0.00,weatherlink.com 1.10,2013-07-05 17:50:00,
2013-07-05 11:05:00,83.5,49.0,29.69,South,184,13.0,21.0,30,0.00,,,0.00,weatherlink.com 1.10,2013-07-05 18:05:00,
2013-07-05 11:20:00,82.8,48.0,29.68,South,188,12.0,24.0,30,0.00,,,0.00,weatherlink.com 1.10,2013-07-05 18:20:00,
2013-07-05 11:35:00,82.6,46.0,29.69,SSW,203,16.0,21.0,28,0.00,,,0.00,weatherlink.com 1.10,2013-07-05 18:35:00,
2013-07-05 11:50:00,83.0,47.0,29.68,South,186,7.0,22.0,28,0.00,,,0.00,weatherlink.com 1.10,2013-07-05 18:50:00,
2013-07-05 12:05:00,85.2,48.0,29.68,South,189,18.0,21.0,27,0.00,,,0.00,weatherlink.com 1.10,2013-07-05 19:05:00,
2013-07-05 12:20:00,85.3,48.0,29.68,SSW,193,19.0,22.0,27,0.00,,,0.00,weatherlink.com 1.10,2013-07-05 19:20:00,
2013-07-05 12:35:00,85.6,47.0,29.69,SSW,197,17.0,21.0,26,0.00,,,0.00,weatherlink.com 1.10,2013-07-05 19:35:00,
2013-07-05 12:50:00,84.8,47.0,29.69,South,170,8.0,22.0,27,0.00,,,0.00,weatherlink.com 1.10,2013-07-05 19:50:00,
2013-07-05 13:05:00,84.8,47.0,29.69,SSW,201,14.0,19.0,27,0.00,,,0.00,weatherlink.com 1.10,2013-07-05 20:05:00,
2013-07-05 13:20:00,84.9,47.0,29.68,South,173,14.0,24.0,27,0.00,,,0.00,weatherlink.com 1.10,2013-07-05 20:20:00,
2013-07-05 13:35:00,85.2,50.0,29.68,SSW,203,7.0,21.0,29,0.00,,,0.00,weatherlink.com 1.10,2013-07-05 20:35:00,
2013-07-05 13:50:00,86.4,50.0,29.68,WSW,250,17.0,20.0,28,0.00,,,0.00,weatherlink.com 1.10,2013-07-05 20:50:00,
2013-07-05 14:05:00,87.2,50.0,29.68,North,360,3.0,20.0,28,0.00,,,0.00,weatherlink.com 1.10,2013-07-05 21:05:00,
2013-07-05 14:20:00,85.8,52.0,29.68,SSW,209,14.0,24.0,31,0.00,,,0.00,weatherlink.com 1.10,2013-07-05 21:20:00,
2013-07-05 14:35:00,84.5,52.0,29.67,SSW,201,11.0,27.0,32,0.00,,,0.00,weatherlink.com 1.10,2013-07-05 21:35:00,
2013-07-05 14:50:00,84.9,52.0,29.67,South,187,11.0,26.0,32,0.00,,,0.00,weatherlink.com 1.10,2013-07-05 21:50:00,
2013-07-05 15:05:00,85.1,52.0,29.67,SSW,194,15.0,24.0,32,0.00,,,0.00,weatherlink.com 1.10,2013-07-05 22:05:00,
2013-07-05 15:20:00,84.9,52.0,29.67,South,173,5.0,22.0,32,0.00,,,0.00,weatherlink.com 1.10,2013-07-05 22:20:00,
2013-07-05 15:35:00,84.8,52.0,29.66,South,188,21.0,26.0,32,0.00,,,0.00,weatherlink.com 1.10,2013-07-05 22:35:00,
2013-07-05 15:50:00,84.3,51.0,29.65,South,181,6.0,24.0,32,0.00,,,0.00,weatherlink.com 1.10,2013-07-05 22:50:00,
2013-07-05 16:05:00,84.7,52.0,29.65,South,174,13.0,21.0,32,0.00,,,0.00,weatherlink.com 1.10,2013-07-05 23:05:00,
2013-07-05 16:20:00,84.6,52.0,29.65,WSW,253,18.0,23.0,32,0.00,,,0.00,weatherlink.com 1.10,2013-07-05 23:20:00,
2013-07-05 16:35:00,84.7,52.0,29.65,SSE,162,10.0,22.0,32,0.00,,,0.00,weatherlink.com 1.10,2013-07-05 23:35:00,
2013-07-05 16:50:00,84.5,53.0,29.65,South,190,6.0,24.0,34,0.00,,,0.00,weatherlink.com 1.10,2013-07-05 23:50:00,
2013-07-05 17:05:00,84.5,55.0,29.64,SW,229,11.0,21.0,36,0.00,,,0.00,weatherlink.com 1.10,2013-07-06 00:05:00,
2013-07-05 17:20:00,83.3,54.0,29.64,South,189,17.0,23.0,36,0.00,,,0.00,weatherlink.com 1.10,2013-07-06 00:20:00,
2013-07-05 17:35:00,82.7,54.0,29.63,WSW,249,14.0,23.0,37,0.00,,,0.00,weatherlink.com 1.10,2013-07-06 00:35:00,
2013-07-05 17:50:00,81.9,54.0,29.63,South,186,17.0,25.0,38,0.00,,,0.00,weatherlink.com 1.10,2013-07-06 00:50:00,
2013-07-05 18:05:00,81.3,53.0,29.63,SSE,154,10.0,25.0,38,0.00,,,0.00,weatherlink.com 1.10,2013-07-06 01:05:00,
2013-07-05 18:20:00,80.7,52.0,29.63,SSW,193,13.0,26.0,37,0.00,,,0.00,weatherlink.com 1.10,2013-07-06 01:20:00,
2013-07-05 18:35:00,79.7,52.0,29.64,SSE,153,14.0,23.0,38,0.00,,,0.00,weatherlink.com 1.10,2013-07-06 01:35:00,
2013-07-05 18:50:00,79.1,52.0,29.64,SSW,201,14.0,24.0,39,0.00,,,0.00,weatherlink.com 1.10,2013-07-06 01:50:00,
2013-07-05 19:05:00,78.1,51.0,29.65,SSW,195,13.0,27.0,39,0.00,,,0.00,weatherlink.com 1.10,2013-07-06 02:05:00,
2013-07-05 19:20:00,77.1,52.0,29.65,SSW,200,14.0,23.0,41,0.00,,,0.00,weatherlink.com 1.10,2013-07-06 02:20:00,
2013-07-05 19:35:00,76.2,53.0,29.65,SSE,162,12.0,22.0,44,0.00,,,0.00,weatherlink.com 1.10,2013-07-06 02:35:00,
2013-07-05 19:50:00,75.8,53.0,29.65,South,186,16.0,21.0,45,0.00,,,0.00,weatherlink.com 1.10,2013-07-06 02:50:00,
2013-07-05 20:05:00,75.0,53.0,29.66,SE,142,9.0,21.0,47,0.00,,,0.00,weatherlink.com 1.10,2013-07-06 03:05:00,
2013-07-05 20:20:00,74.5,53.0,29.67,SSE,160,9.0,21.0,47,0.00,,,0.00,weatherlink.com 1.10,2013-07-06 03:20:00,
2013-07-05 20:35:00,74.0,53.0,29.67,South,190,16.0,20.0,48,0.00,,,0.00,weatherlink.com 1.10,2013-07-06 03:35:00,
2013-07-05 20:50:00,73.4,54.0,29.68,South,172,8.0,20.0,50,0.00,,,0.00,weatherlink.com 1.10,2013-07-06 03:50:00,
2013-07-05 21:05:00,72.8,54.0,29.68,SSE,160,7.0,15.0,52,0.00,,,0.00,weatherlink.com 1.10,2013-07-06 04:05:00,
2013-07-05 21:20:00,72.2,54.0,29.69,South,184,7.0,16.0,54,0.00,,,0.00,weatherlink.com 1.10,2013-07-06 04:20:00,
2013-07-05 21:35:00,71.5,54.0,29.69,WSW,246,2.0,10.0,55,0.00,,,0.00,weatherlink.com 1.10,2013-07-06 04:35:00,
2013-07-05 21:50:00,71.1,54.0,29.70,SSE,160,2.0,8.0,56,0.00,,,0.00,weatherlink.com 1.10,2013-07-06 04:50:00,
2013-07-05 22:05:00,70.7,54.0,29.70,WSW,243,3.0,11.0,56,0.00,,,0.00,weatherlink.com 1.10,2013-07-06 05:05:00,
2013-07-05 22:20:00,70.6,54.0,29.70,WNW,300,3.0,12.0,56,0.00,,,0.00,weatherlink.com 1.10,2013-07-06 05:20:00,
2013-07-05 22:35:00,70.7,54.0,29.70,East,98,2.0,11.0,55,0.00,,,0.00,weatherlink.com 1.10,2013-07-06 05:35:00,
2013-07-05 22:50:00,69.7,54.0,29.70,SSW,194,1.0,7.0,57,0.00,,,0.00,weatherlink.com 1.10,2013-07-06 05:50:00,
2013-07-05 23:05:00,69.2,54.0,29.70,WSW,238,2.0,9.0,58,0.00,,,0.00,weatherlink.com 1.10,2013-07-06 06:05:00,
2013-07-05 23:20:00,68.7,54.0,29.70,West,278,2.0,12.0,59,0.00,,,0.00,weatherlink.com 1.10,2013-07-06 06:20:00,
2013-07-05 23:35:00,68.5,53.0,29.70,SSE,153,4.0,13.0,59,0.00,,,0.00,weatherlink.com 1.10,2013-07-06 06:35:00,
2013-07-05 23:50:00,68.0,53.0,29.70,SW,232,3.0,11.0,60,0.00,,,0.00,weatherlink.com 1.10,2013-07-06 06:50:00,